{"data":{"norad_id":66202,"epoch":"2026-09-20T17:13:33.785760Z","epoch_age_seconds":81578,"freshness":"FRESH","line1":"1 66202U 25243AB  26263.71775215  .00015970  00000+0  48270-3 0  9991","line2":"2 66202  53.1536  58.6404 0000729  81.7991 278.3094 15.34404253 50527","mean_motion":15.34404253,"eccentricity":7.29e-5,"inclination_deg":53.1536,"raan_deg":58.6404,"arg_perigee_deg":81.7991,"mean_anomaly_deg":278.3094,"bstar":0.0004827,"rev_number":5052,"period_min":93.847497957893,"perigee_km":462.19190309203,"apogee_km":463.18929575602,"semimajor_km":6840.827599424,"source":"CELESTRAK","updated_at":"2026-09-21T09:00:35.838841Z"}}